Voltar ao catálogo

STARLINK-36664

AtivoComunicaçõesVLEO
NORAD 68965·PAYLOAD·🇺🇸 United States

Lançado May 1, 2026 de Cape Canaveral Space Force Station

Loading…

Próximas Passagens (próximas 24 horas)

TLE

AtualizadoSource: CelesTrak SupGP

Época: Sep 15, 2026, 03:37 UTC

1 68965C 26099Q   26258.15118056 -.00012102  00000+0 -35758-3 0  2586
2 68965  53.1571 100.7309 0001232  84.2800 289.2819 15.34394799    12

Acompanhe STARLINK-36664 em tempo real com AllMySat

Download on the App Store